Theta_e
311 313 314 316 320 325 325 321 320 321 320 321 321 320 324 329 328 326 325 324 320 318 318 318 318 319 320 321 322 322 324 325 326 327 326 325 324 323 323 323 323 323 322 323 323 323 323 323 324 323 323 323 323 324 324 323 323 322 321 324 323 323 322 318 317 322 325 325 325 326 327 326 326 324 324 325 324 325 324 323 325 322 321 323 320 326 338
310 310 311 312 317 324 325 321 320 321 321 321 321 320 324 327 326 325 324 323 321 319 319 319 319 320 321 321 322 323 324 324 325 326 325 325 324 322 323 322 322 322 322 322 323 323 322 322 324 323 323 324 323 323 324 322 322 322 323 325 323 321 322 320 317 318 320 321 322 324 325 325 324 323 325 326 326 328 327 326 327 323 322 323 321 326 338
309 310 310 310 314 322 325 321 320 321 321 321 320 319 322 325 326 327 324 322 322 321 320 320 320 321 322 322 322 322 324 325 325 325 325 325 325 323 323 323 322 322 322 323 323 323 322 322 323 324 323 323 323 324 323 322 322 325 326 326 323 321 323 322 319 317 318 319 320 321 324 325 325 325 326 327 327 327 326 325 325 324 324 325 324 329 339
309 309 310 309 313 320 324 321 320 320 320 321 320 318 321 325 327 327 325 323 322 322 322 321 322 323 323 324 325 323 324 324 324 325 324 324 326 324 323 324 323 322 322 322 322 323 323 323 323 324 324 323 324 324 323 322 323 326 326 325 323 323 323 323 322 320 320 321 323 326 326 324 323 324 325 326 326 328 327 324 323 325 324 325 330 334 337
308 309 309 309 312 319 324 321 319 320 320 320 319 318 322 327 328 327 326 325 324 323 323 322 322 323 323 325 326 325 324 324 323 324 323 324 325 325 324 324 323 322 322 321 322 322 323 323 323 324 324 324 324 323 324 323 323 324 324 323 322 321 320 321 323 322 322 324 324 325 325 322 322 322 322 324 326 327 326 323 325 328 323 324 335 338 334
307 308 308 309 311 318 323 321 319 319 319 319 319 320 325 329 329 328 327 326 326 326 325 323 322 322 323 324 325 325 325 324 324 323 323 323 324 324 324 323 323 322 322 321 322 322 323 323 323 324 323 324 323 323 323 323 324 324 322 322 323 321 319 320 322 321 323 323 323 323 323 322 322 321 320 323 324 324 325 324 327 329 325 328 337 338 337
306 306 307 308 311 318 323 321 319 319 319 319 319 320 325 328 327 327 327 327 328 328 327 326 325 324 324 324 323 323 324 324 324 324 323 323 323 323 323 323 323 322 322 322 323 324 322 322 324 325 324 323 324 324 323 324 324 324 323 323 324 322 320 323 323 322 323 324 323 323 322 321 321 321 321 323 324 324 325 325 328 330 330 334 338 338 341
306 306 306 308 311 317 322 321 318 318 319 319 320 322 326 328 327 327 327 327 327 327 327 327 327 327 327 326 325 324 323 324 324 324 323 323 324 324 323 323 324 323 323 323 323 324 324 323 325 325 324 324 324 325 325 324 324 325 324 324 324 321 321 323 324 321 322 323 324 322 322 321 320 321 323 323 324 323 324 326 328 330 333 338 339 338 341
307 306 306 308 310 315 321 321 317 317 318 319 323 327 328 327 326 326 326 326 326 326 326 327 326 327 327 327 327 326 325 325 325 324 324 324 324 324 323 323 324 323 324 323 323 324 324 324 325 325 324 325 325 325 325 325 325 325 324 324 325 322 321 323 322 318 317 321 322 321 322 322 319 320 322 322 323 322 323 328 331 330 333 337 336 334 338
307 306 306 307 308 312 319 321 317 316 317 318 321 326 328 328 327 326 327 327 327 326 326 326 325 326 327 327 327 326 326 326 325 325 325 324 324 324 324 324 323 323 323 323 323 324 324 324 325 324 324 324 324 325 325 324 325 325 324 325 325 324 322 321 320 317 316 320 322 322 322 319 317 321 323 323 325 325 325 329 332 331 332 332 331 333 338
307 307 306 307 308 311 317 320 318 316 317 318 318 321 326 328 326 325 327 327 327 327 327 326 325 325 326 327 326 326 326 326 327 325 325 325 324 324 324 324 323 323 324 324 324 323 324 324 324 324 324 324 324 325 324 325 324 324 325 324 324 325 323 321 321 318 317 321 322 322 319 317 319 326 328 326 326 327 327 328 330 333 333 331 332 335 339
307 308 307 308 310 312 315 319 320 317 318 318 317 319 325 327 324 324 327 327 327 328 327 327 327 325 325 326 326 327 326 326 327 326 325 325 326 325 325 325 325 325 324 323 324 323 323 323 323 323 324 323 325 324 323 324 324 324 324 323 323 324 323 322 321 319 318 321 321 318 317 319 326 330 329 328 327 327 327 328 330 333 333 333 334 335 337
308 308 307 310 312 312 313 318 320 318 318 319 317 318 322 323 322 324 327 327 327 328 326 327 328 326 325 325 325 327 328 327 327 327 326 327 327 327 327 326 325 325 324 323 324 324 324 324 323 324 323 323 324 324 323 323 323 324 323 323 323 323 323 322 321 319 319 319 317 317 319 325 329 328 327 327 327 326 325 326 330 333 333 333 335 336 337
308 308 308 310 311 309 312 318 320 319 319 319 319 317 317 320 323 326 328 328 328 328 327 327 327 327 326 326 324 325 328 328 327 327 327 327 327 327 326 326 325 324 323 323 323 323 324 323 322 322 323 323 322 322 323 323 323 323 323 323 323 322 322 321 319 319 319 317 315 318 320 322 324 327 328 327 327 327 326 327 332 335 333 334 335 336 337
309 308 308 309 309 307 312 318 320 319 319 319 318 314 315 321 323 321 323 327 327 327 328 327 327 326 326 326 324 323 325 326 326 326 326 326 327 326 325 325 325 324 323 323 324 324 324 321 320 318 319 319 319 320 323 323 323 323 323 324 324 323 323 323 319 319 320 317 316 318 317 319 325 329 331 328 327 329 329 329 332 335 333 334 335 337 338
309 308 308 309 309 308 311 316 318 319 319 318 316 315 318 323 321 317 321 326 327 326 326 326 326 326 326 327 325 323 323 323 324 325 325 326 326 325 325 324 324 324 324 323 324 325 324 321 319 318 318 320 320 321 322 322 323 324 323 324 324 323 325 324 320 318 319 317 316 316 318 324 330 330 330 328 328 329 328 327 329 334 334 333 333 336 337
309 309 308 308 309 310 313 316 317 317 319 318 316 316 320 322 320 318 320 325 326 326 326 325 326 326 326 326 326 325 324 323 323 323 324 325 325 325 324 323 324 324 323 323 324 324 323 322 320 318 320 324 323 321 322 322 321 322 324 323 323 323 325 323 318 317 318 318 317 316 320 328 332 328 327 328 328 329 327 324 327 334 334 333 333 335 337
309 309 308 308 309 311 314 316 316 316 318 319 316 316 320 321 320 318 319 323 326 325 324 325 324 325 325 325 325 325 325 324 323 323 323 324 326 326 324 324 324 323 323 324 325 323 322 322 321 319 322 328 327 322 322 323 321 322 324 324 323 323 323 322 319 317 317 317 316 317 321 329 330 325 327 328 328 327 325 325 330 334 333 333 334 335 335
308 308 308 309 310 312 315 316 315 315 318 319 317 317 320 321 320 319 320 323 326 325 324 325 323 323 324 323 323 325 325 324 324 324 323 324 326 326 324 324 325 324 323 324 324 323 321 321 322 322 323 326 327 323 323 324 324 324 324 323 322 322 322 321 320 318 318 317 316 316 322 329 329 325 327 328 324 324 326 331 334 333 333 335 334 334 335
308 308 308 308 310 313 316 315 314 315 318 319 318 318 320 321 320 320 320 322 324 325 323 322 322 323 323 322 323 324 324 324 324 324 323 324 326 326 325 325 325 324 324 323 322 323 322 321 324 324 322 324 327 325 324 325 326 326 325 323 323 323 321 319 319 319 318 317 315 316 322 329 329 326 328 328 325 327 332 335 333 331 333 334 333 334 335
307 308 308 308 311 314 315 314 314 316 319 320 318 317 319 321 321 320 320 319 321 324 323 320 322 322 321 321 321 321 323 325 325 324 323 323 325 326 326 326 326 326 326 324 323 322 322 322 324 324 322 325 327 325 323 324 325 326 326 326 325 325 322 320 322 322 318 316 318 321 325 329 326 326 330 330 329 331 333 332 331 331 332 333 333 333 333
307 307 307 307 310 314 315 314 315 316 318 319 319 317 319 321 321 320 320 319 319 321 321 319 320 320 320 320 319 318 320 321 323 324 323 323 325 326 326 327 327 326 327 328 327 326 324 324 326 323 323 327 328 326 324 323 322 325 327 326 325 326 327 327 327 326 323 323 326 328 329 328 327 328 330 331 329 329 330 330 331 332 332 334 335 335 333
306 307 307 307 309 312 314 315 316 316 316 318 319 318 318 320 320 319 319 320 320 321 321 320 321 321 321 321 320 320 319 318 319 322 322 322 324 325 326 327 327 325 327 329 331 331 329 329 329 325 325 329 328 325 325 325 323 325 328 326 326 326 328 329 328 326 325 328 330 330 328 328 329 329 330 330 329 329 329 330 332 332 331 333 334 335 334
306 306 307 307 307 309 312 315 316 316 315 316 318 319 318 319 319 318 319 320 322 323 324 323 324 324 323 322 322 322 320 318 317 319 320 321 322 323 324 326 325 326 328 330 331 330 328 329 330 326 325 327 325 323 325 325 326 327 327 326 327 327 325 326 327 325 324 327 330 328 326 327 329 330 330 329 329 329 329 331 333 331 330 332 333 334 333
305 306 307 307 306 309 313 315 316 315 314 314 317 319 318 318 318 317 318 320 322 323 324 324 324 323 322 321 320 321 321 319 318 318 319 320 320 321 322 323 323 325 327 328 329 329 328 329 329 325 324 325 323 324 327 327 327 328 327 326 327 328 326 326 326 325 325 328 331 330 327 327 329 330 329 328 329 330 330 331 332 331 331 331 332 332 332
307 308 308 307 307 309 313 315 315 314 313 314 317 318 318 318 318 317 318 319 321 322 323 324 324 323 322 321 320 319 319 319 319 319 319 320 320 320 320 321 321 322 323 325 327 327 327 328 327 324 326 328 327 326 328 328 327 328 328 326 327 327 325 325 325 324 326 330 331 330 329 328 328 329 330 330 329 330 330 331 331 331 331 330 330 330 331
308 308 308 308 307 308 312 315 314 313 313 314 316 317 318 318 318 317 317 318 320 322 323 323 324 324 323 323 322 321 320 320 319 320 320 320 321 321 321 321 320 321 322 325 326 326 326 327 326 324 326 329 328 326 328 328 327 327 326 326 326 325 326 326 325 323 324 328 331 331 329 328 328 329 330 331 331 331 331 331 331 330 330 330 329 330 330
308 308 308 308 307 307 310 313 313 312 313 314 315 316 318 319 318 318 317 317 318 321 322 322 324 324 323 323 322 321 321 321 319 319 319 320 321 321 322 321 321 321 322 324 326 326 326 325 325 324 324 326 326 326 328 327 326 326 326 326 326 326 326 327 325 324 325 327 329 330 329 328 328 329 330 331 332 331 330 330 330 330 330 329 329 330 330
308 308 308 308 306 306 307 309 311 313 314 314 315 316 317 319 319 319 318 317 317 318 319 321 322 323 323 323 323 321 321 320 319 318 317 318 319 321 322 322 321 321 322 323 325 326 326 325 325 325 324 324 325 326 327 327 327 327 326 326 326 325 325 326 326 326 328 329 329 329 328 327 327 329 331 331 331 331 330 330 330 330 329 328 329 330 331
308 308 308 307 307 308 308 308 310 313 314 314 314 315 317 319 319 318 318 317 317 317 319 321 322 323 324 323 323 323 322 320 319 318 317 317 318 319 321 322 322 322 322 323 324 325 325 325 325 324 324 324 324 325 326 326 328 329 328 328 328 326 326 326 325 326 328 329 329 328 327 326 328 330 331 331 331 330 330 330 330 330 329 329 329 330 331
307 307 307 307 307 309 311 310 310 311 313 314 314 315 318 320 319 318 317 317 317 317 319 321 322 323 324 324 323 323 322 321 319 318 318 319 318 319 320 322 322 322 322 323 324 325 326 327 326 325 324 325 325 325 325 325 326 329 329 329 328 327 327 327 326 326 328 327 327 327 326 327 329 330 331 330 330 329 329 330 330 329 329 329 329 330 331
306 306 306 307 307 308 310 312 312 312 313 314 314 315 318 319 318 317 317 316 317 317 318 320 322 323 324 324 323 323 322 320 318 318 318 319 319 320 320 321 322 323 322 323 324 325 325 326 326 324 326 327 326 325 325 325 326 328 329 328 328 328 327 326 326 327 328 327 328 328 328 328 330 331 331 329 329 329 330 330 329 329 329 330 330 330 330
306 306 306 307 308 308 309 312 313 313 313 313 313 314 315 316 316 316 316 315 316 317 318 320 321 322 323 323 322 321 321 320 318 318 319 320 320 320 321 322 322 323 323 323 324 325 325 325 324 324 326 328 327 325 326 325 326 328 328 327 327 327 326 326 327 328 328 328 328 328 329 328 329 330 330 329 328 329 329 330 329 329 329 330 330 329 329
307 307 308 309 310 310 310 311 311 312 312 312 312 313 313 313 314 315 315 316 317 318 318 319 321 321 322 322 322 321 320 320 319 319 320 320 320 321 322 322 322 323 323 323 324 325 325 325 325 324 325 326 325 326 326 326 326 329 329 328 327 328 327 327 328 329 327 327 327 328 328 328 329 329 329 329 328 329 329 330 329 328 328 329 330 330 330
309 308 310 311 312 312 312 311 312 312 312 312 312 313 314 314 315 315 315 315 317 319 319 320 320 321 321 322 322 321 320 320 320 321 321 321 321 321 322 323 323 323 323 324 325 325 325 325 325 324 325 326 326 326 326 325 326 328 329 328 328 329 329 328 328 328 327 327 328 327 327 328 329 329 329 328 328 329 329 329 329 328 327 328 329 329 331
310 310 311 313 313 313 313 312 312 312 312 312 313 314 314 314 315 314 314 315 316 318 320 320 320 321 321 321 321 321 322 321 321 322 322 322 322 322 322 324 324 323 324 325 325 325 326 326 325 325 325 327 327 328 327 328 328 329 329 329 328 328 328 327 327 327 327 327 327 326 326 328 329 329 329 328 329 329 329 329 328 328 327 327 327 328 329
312 312 313 313 312 312 312 312 312 312 313 313 314 314 314 314 314 314 314 314 315 316 318 319 321 322 322 321 321 322 323 323 322 322 322 323 324 324 323 324 325 324 324 325 325 326 328 329 326 325 325 325 327 328 329 328 328 328 328 328 327 326 326 326 326 327 327 327 326 326 326 328 329 329 330 329 329 329 329 329 328 327 327 327 328 327 327
313 312 312 312 312 312 313 312 312 313 313 314 314 314 314 314 314 315 315 315 315 316 317 318 319 321 322 322 322 322 322 323 323 323 323 324 326 326 324 324 325 325 325 326 326 327 329 329 326 325 326 326 328 330 328 325 326 327 327 327 326 326 326 326 326 326 327 327 327 328 327 327 328 330 330 328 329 329 329 329 328 328 327 327 327 327 327
312 312 312 312 312 313 315 314 313 313 313 313 314 314 315 315 315 316 317 317 317 318 318 318 319 320 320 320 320 321 322 322 323 324 325 325 326 327 326 324 325 326 326 327 327 326 327 328 327 327 327 327 329 329 326 324 325 326 326 327 328 328 327 326 327 329 328 328 329 331 329 326 327 329 330 329 329 329 329 329 329 329 328 327 327 327 327
312 312 313 313 313 314 315 315 314 314 314 314 315 316 316 316 317 318 318 318 318 319 320 319 319 320 319 319 320 320 321 321 322 324 326 326 325 326 327 326 325 325 326 327 327 326 325 326 327 327 327 327 329 329 326 325 326 326 325 326 329 329 328 327 330 333 332 328 328 329 328 326 327 329 330 329 329 329 330 330 329 328 328 327 327 326 326
312 312 313 314 314 315 315 314 314 314 315 315 316 316 317 318 318 319 320 319 319 319 320 320 320 321 320 319 319 320 322 322 323 324 326 326 325 326 326 326 325 325 326 326 326 325 325 326 326 327 326 327 329 329 327 326 328 328 327 328 330 331 330 329 329 331 332 329 327 327 326 326 326 327 328 329 330 330 330 330 329 329 328 327 326 327 326
313 313 314 315 315 315 315 315 315 315 315 316 316 316 317 319 319 319 320 320 320 320 320 320 320 321 321 320 319 320 322 323 323 325 326 326 325 325 326 326 325 325 326 326 326 327 327 326 326 327 326 327 328 328 326 325 327 328 329 328 327 328 330 329 326 325 327 328 328 327 326 326 325 325 326 329 330 330 331 330 329 329 328 327 327 327 327
313 313 314 314 315 315 315 315 316 316 316 316 316 317 317 318 319 319 320 320 320 320 321 321 320 320 321 321 320 320 321 322 324 325 325 326 325 325 325 325 325 325 325 325 326 327 327 326 325 326 326 326 327 328 328 327 327 327 327 327 327 328 330 329 325 323 325 327 327 326 326 325 324 325 327 330 330 329 329 330 330 329 328 328 327 327 326
313 313 313 314 315 316 315 315 316 316 316 316 317 318 318 318 319 319 320 320 319 319 321 322 320 320 322 322 321 321 321 322 323 325 325 325 325 325 324 325 325 325 325 325 325 325 324 324 325 327 327 326 327 330 330 329 329 329 328 328 328 330 331 329 325 324 325 325 325 325 326 325 325 325 326 328 328 327 328 329 329 328 328 328 327 326 326
313 313 314 314 315 315 315 315 315 315 316 316 317 317 318 318 318 318 320 321 320 319 320 321 320 320 321 321 320 321 322 320 321 323 325 325 325 325 325 325 325 325 325 325 325 324 324 324 325 329 330 329 329 331 332 331 330 330 329 328 327 328 330 329 327 326 326 325 325 325 325 325 326 327 327 327 327 328 329 330 329 328 328 328 327 326 326
314 314 315 315 315 315 315 315 314 315 317 318 318 318 318 318 319 320 320 320 319 319 320 321 321 321 322 321 320 321 321 320 320 322 323 324 324 325 326 325 324 324 324 325 325 324 324 323 324 327 329 329 328 329 329 330 329 328 328 327 327 327 328 329 328 327 327 327 327 326 325 325 326 328 329 328 327 327 330 330 329 328 328 328 327 326 326
314 315 315 315 315 315 315 315 316 316 317 318 319 319 319 319 320 320 319 318 318 319 319 321 321 321 321 321 321 320 320 320 321 321 321 322 323 324 324 324 324 324 324 324 324 324 324 325 326 328 328 329 328 327 326 326 326 326 326 327 326 326 327 329 329 328 327 328 327 326 325 325 326 327 328 329 328 328 329 330 329 328 328 328 327 326 326
314 315 315 315 315 315 315 316 316 317 318 318 318 319 320 319 318 318 318 319 319 319 320 322 322 322 322 322 321 321 320 320 320 321 321 322 322 322 322 323 323 323 323 324 324 323 324 327 328 328 327 327 327 327 326 325 325 326 326 326 326 327 328 329 330 329 328 327 328 328 327 326 327 328 329 329 328 328 329 330 329 328 327 327 327 327 327
314 314 315 315 316 316 317 317 317 318 318 318 317 318 320 320 319 318 318 318 319 320 322 322 322 322 323 322 321 320 320 320 320 320 322 322 322 322 322 322 322 323 322 322 322 324 326 327 327 326 325 326 327 327 327 326 326 326 326 326 327 327 328 329 330 330 329 328 328 328 328 327 328 329 328 328 327 329 329 329 329 328 328 327 327 328 327
314 315 315 316 316 317 318 317 317 318 319 318 317 318 320 321 320 320 320 320 320 321 322 322 321 322 322 322 320 320 320 320 320 320 321 322 322 321 321 322 322 321 321 321 323 325 326 325 326 327 328 328 327 325 325 326 328 327 327 326 326 326 327 328 329 329 329 328 328 327 327 327 328 328 327 326 327 328 329 329 329 328 327 328 329 328 327
314 315 316 316 317 317 317 317 318 319 320 319 319 320 321 322 321 321 321 321 321 322 322 322 322 321 320 320 319 319 320 321 321 320 321 321 321 321 322 322 321 321 321 321 323 324 325 325 327 329 329 329 328 327 326 327 329 329 328 327 327 326 326 326 327 327 328 328 327 326 326 326 327 327 327 327 328 329 329 329 329 329 328 329 329 328 326
314 315 316 316 317 317 317 318 320 320 319 319 320 321 321 321 321 321 320 320 321 322 322 322 322 320 319 319 319 319 320 321 322 321 321 321 320 321 322 322 321 321 322 322 323 325 326 327 327 327 328 328 329 329 327 326 327 328 328 328 329 328 326 326 327 328 329 329 328 326 326 327 327 328 328 330 331 331 331 330 329 328 328 329 329 327 326
Wind_Speed
20 20 19 17 17 18 17 17 17 18 19 16 14 15 13 11 6 4 10 11 12 11 8 8 9 8 11 14 16 17 14 11 12 9 6 8 9 8 8 8 8 7 6 6 8 6 3 5 7 5 1 7 10 9 9 5 2 5 5 5 2 1 3 5 7 8 7 4 3 1 2 4 5 6 6 5 4 4 4 4 5 6 7 8 6 1 3
19 19 18 17 16 16 16 16 16 16 18 18 17 16 14 15 14 5 9 11 12 11 7 7 8 9 13 15 15 18 16 9 9 11 8 7 7 9 8 7 8 8 7 8 8 3 3 6 8 6 1 9 11 7 6 4 4 5 3 6 4 2 2 3 5 6 6 7 6 4 3 1 4 7 7 3 2 7 6 4 4 5 7 8 7 2 3
19 19 18 17 15 15 14 14 15 14 15 15 17 18 15 14 14 9 10 11 13 13 10 9 9 8 12 14 14 16 13 8 10 13 13 10 9 9 8 9 10 10 7 7 8 6 5 6 7 6 3 4 8 7 6 2 3 6 13 9 5 5 2 2 4 5 4 2 1 1 1 2 3 4 4 1 1 6 5 3 4 4 5 6 5 2 4
18 18 19 17 15 13 12 13 13 13 13 14 15 17 13 9 8 8 11 12 14 15 15 16 12 9 9 9 11 14 11 10 13 14 15 14 12 12 10 10 11 10 7 6 8 9 7 6 6 6 6 5 6 10 6 4 2 13 15 9 5 5 5 5 6 8 7 4 4 5 4 6 6 5 7 5 3 3 2 3 4 3 4 3 3 4 2
18 18 19 16 13 12 11 11 12 12 12 13 16 16 11 7 7 7 4 8 10 10 14 16 12 11 11 8 8 11 12 10 11 13 12 14 14 12 11 12 12 11 10 8 8 9 8 8 7 4 4 5 2 12 8 6 7 10 6 7 4 4 5 8 9 9 9 8 9 9 6 8 10 10 10 7 5 4 3 5 5 4 5 2 4 5 3
17 17 18 16 13 11 11 10 11 11 10 11 14 13 9 8 9 9 3 2 6 6 9 12 11 13 13 9 10 13 10 9 9 11 13 13 14 10 9 13 14 10 9 9 8 8 8 10 9 3 2 5 3 10 7 5 10 5 7 7 4 5 7 9 11 12 13 12 10 10 9 8 9 10 9 8 7 6 5 7 7 4 5 2 4 3 3
17 17 17 15 13 11 11 10 10 10 9 10 12 10 9 10 11 12 10 6 8 10 10 10 9 11 11 8 10 12 11 10 11 10 10 10 13 12 10 13 13 11 11 9 8 8 8 9 10 7 6 8 7 6 5 6 10 6 8 7 5 4 5 7 11 13 10 7 6 9 9 9 9 8 7 8 8 7 6 7 5 3 4 3 3 1 1
16 17 17 15 12 10 10 9 10 10 8 8 10 10 11 11 11 13 15 12 11 14 14 11 8 8 9 8 10 11 12 12 12 12 11 9 10 12 13 15 14 13 14 12 10 10 9 8 7 6 6 8 8 6 3 4 8 7 6 5 7 4 3 5 7 10 8 5 9 11 9 9 10 8 7 8 7 8 8 5 3 3 2 5 4 1 2
16 17 17 14 11 10 9 9 10 10 8 6 7 10 12 13 11 11 12 9 10 12 12 10 7 7 7 8 9 9 11 13 11 12 16 15 11 10 13 15 15 14 15 15 14 12 11 11 9 7 9 9 9 7 5 4 6 8 6 5 7 6 4 6 4 5 7 9 12 11 6 7 10 9 10 10 8 8 6 1 3 4 1 5 3 2 2
16 17 16 14 11 9 9 8 9 10 8 6 8 9 13 15 12 10 10 8 8 10 9 8 8 7 6 8 10 10 12 14 12 11 14 18 17 15 14 13 11 12 13 14 16 16 15 14 11 10 12 12 12 11 8 8 7 6 5 5 4 3 4 5 5 6 7 8 9 7 4 6 7 6 7 6 5 4 3 2 2 3 2 1 1 2 4
16 16 15 14 11 9 9 8 9 10 8 8 10 8 11 15 13 12 11 8 8 10 9 8 8 7 7 9 11 12 13 13 13 11 9 13 17 18 18 14 9 9 12 15 17 18 16 13 11 12 14 13 13 13 11 10 10 8 6 6 5 4 4 6 6 6 7 5 3 3 5 5 2 3 6 5 3 2 3 2 1 2 2 2 3 4 5
15 15 14 13 12 10 9 8 8 9 8 9 10 6 6 12 13 11 10 7 7 10 8 8 11 9 8 9 10 11 12 13 15 15 10 12 14 11 12 13 9 9 11 13 15 16 14 11 9 9 12 12 12 13 14 13 11 10 9 9 6 5 6 5 5 5 8 6 2 4 6 2 3 4 4 4 4 3 3 5 3 1 3 3 5 6 6
14 14 13 12 12 11 10 8 8 9 9 10 10 8 7 9 10 9 10 8 7 9 8 10 17 17 12 10 8 9 12 13 15 14 10 12 16 13 13 15 13 11 10 10 13 13 11 8 6 7 8 9 10 11 13 13 10 10 11 9 6 6 5 4 4 5 6 6 5 5 3 5 6 4 2 1 2 3 5 5 2 4 5 3 4 7 7
14 13 12 13 14 12 9 7 7 8 9 9 10 10 9 7 8 9 10 7 7 10 11 9 12 14 13 10 9 9 11 11 12 11 9 11 14 14 15 16 15 12 12 11 12 10 6 5 4 6 6 7 8 9 10 11 10 11 11 10 8 7 6 5 4 5 5 6 6 5 4 5 5 5 6 2 1 1 2 2 2 5 5 4 3 6 8
15 14 13 13 14 11 8 7 7 8 9 9 9 8 5 6 9 9 8 8 7 10 11 9 9 10 13 12 7 5 7 8 8 9 11 13 14 14 15 16 16 16 17 15 9 4 5 6 5 6 7 7 7 7 7 8 9 11 12 9 8 8 5 5 5 5 6 7 6 7 7 4 1 6 6 2 1 1 0 1 1 3 5 5 4 8 10
16 15 13 13 13 11 8 8 8 8 8 8 8 5 1 7 12 9 8 10 8 7 8 8 8 9 10 10 9 5 5 5 5 6 8 11 14 15 15 17 19 19 19 13 6 3 5 7 6 6 7 7 7 6 5 5 6 8 10 10 8 7 6 5 6 7 6 7 6 6 5 1 2 2 2 2 2 1 2 2 2 3 5 5 4 8 12
17 15 14 13 13 11 8 8 10 9 8 7 7 3 3 7 13 10 8 10 10 11 14 12 9 8 8 8 8 7 7 6 6 7 6 5 10 14 15 17 19 19 15 9 4 5 7 7 7 8 5 4 5 5 4 5 6 6 7 7 8 8 6 6 7 7 7 7 6 5 3 3 5 3 1 3 3 1 4 3 2 4 5 6 5 8 12
16 16 14 13 14 12 9 8 10 10 8 7 7 5 6 8 11 8 6 9 10 13 15 13 10 10 8 7 7 7 6 6 5 6 5 5 8 10 12 14 16 16 13 9 5 7 9 7 8 8 4 0 1 3 3 4 6 6 6 5 6 7 7 6 7 8 8 8 7 5 1 5 5 3 1 4 3 1 3 2 3 7 8 7 8 11 11
16 16 15 14 14 13 11 9 10 10 8 7 6 6 6 6 7 5 6 9 10 12 14 12 11 11 10 10 10 10 9 7 6 5 4 4 5 8 10 12 14 11 12 10 8 7 8 8 7 7 4 3 3 4 5 5 5 5 6 7 7 6 6 7 8 8 7 7 8 7 2 2 0 2 7 7 1 2 1 2 6 10 11 9 10 11 11
16 15 15 14 14 13 13 10 9 10 8 6 7 7 5 5 7 8 9 9 11 15 18 14 10 10 10 10 10 11 10 9 7 6 6 4 1 4 9 8 10 9 7 10 10 7 6 8 7 5 5 5 3 3 6 7 6 6 7 8 6 5 6 7 7 7 7 7 8 6 2 1 1 3 7 5 2 2 6 6 6 8 11 13 12 11 10
16 14 15 14 13 13 13 12 9 9 8 6 6 6 3 2 5 10 11 9 9 13 14 10 8 10 12 12 13 13 13 12 9 7 9 7 3 1 6 4 2 4 3 5 8 7 6 7 6 5 7 3 2 1 5 6 7 8 8 7 5 4 5 6 4 3 6 6 4 2 2 4 3 3 5 4 4 7 8 6 5 5 9 13 13 11 11
17 14 14 15 15 14 14 13 11 9 8 6 5 6 4 1 5 11 13 12 12 15 17 16 15 15 15 15 17 17 16 17 14 9 8 9 5 4 7 6 5 6 4 4 5 6 5 5 5 6 7 4 4 5 5 5 5 7 8 7 5 3 2 2 2 4 4 1 3 1 2 5 5 6 8 8 7 6 5 5 3 5 9 14 14 13 14
18 15 14 15 17 16 15 15 14 11 9 7 6 8 8 3 6 10 11 11 14 17 20 22 19 17 19 20 19 18 17 18 19 14 9 9 8 8 10 9 9 12 8 4 4 5 5 5 4 6 5 4 4 5 7 6 5 4 5 8 6 4 5 4 3 3 2 4 7 4 2 3 5 7 8 7 6 6 6 5 4 4 8 11 12 14 14
18 16 15 14 16 17 16 16 15 13 11 9 8 9 11 9 9 9 7 8 12 14 15 16 15 15 18 16 12 11 12 14 16 16 14 11 9 9 9 8 7 9 7 4 5 6 7 5 4 5 4 3 6 5 5 6 4 2 4 6 3 5 9 8 4 4 4 2 3 2 4 4 5 6 6 5 5 5 5 6 6 5 6 9 12 14 14
16 15 15 14 15 17 16 15 17 16 13 11 10 10 11 10 8 7 7 7 9 10 9 10 14 17 15 10 7 9 12 12 13 14 15 15 14 14 13 10 8 8 7 9 9 7 7 5 4 6 5 4 6 4 2 3 2 0 2 4 2 3 7 8 7 6 4 3 2 2 4 4 6 6 5 6 6 6 5 7 8 7 6 8 11 13 15
12 13 14 14 14 17 17 15 16 17 14 11 10 10 11 10 7 5 6 6 9 10 9 10 16 19 15 10 8 8 8 9 10 12 14 16 16 17 20 19 17 14 13 12 11 10 9 5 4 6 4 1 1 2 1 2 1 3 4 3 1 1 4 4 4 4 3 6 4 2 2 3 7 7 7 7 8 8 7 8 8 8 8 9 10 10 13
11 13 15 14 13 17 19 15 15 16 14 11 10 11 12 12 10 8 6 4 6 8 8 9 14 17 16 13 10 9 9 12 13 12 13 15 16 17 19 20 18 16 14 13 12 12 10 7 6 8 6 4 4 4 4 4 5 6 6 4 4 6 6 4 3 5 5 4 9 9 5 2 3 6 8 10 10 10 9 9 9 9 9 9 10 10 11
12 13 15 14 13 17 20 18 16 17 14 11 10 12 13 13 12 10 8 6 6 7 9 13 17 19 19 17 14 12 13 15 16 15 15 15 16 17 18 18 17 15 14 12 11 10 9 7 8 10 9 8 7 5 6 9 9 7 6 8 9 9 7 4 5 5 2 3 11 13 8 2 1 5 8 11 11 10 11 10 10 11 10 10 10 11 12
13 14 15 14 12 14 18 20 19 17 13 11 10 10 11 11 11 11 9 7 6 8 12 16 18 17 16 15 13 13 12 11 13 15 17 16 16 17 18 17 17 16 15 14 13 10 9 10 12 11 10 10 8 2 2 5 6 5 6 8 9 9 9 9 10 7 3 6 11 12 9 6 6 8 11 13 12 11 11 11 11 11 11 10 10 11 12
15 15 15 13 11 11 12 16 20 18 13 10 7 6 7 7 6 6 8 7 5 6 9 11 12 13 15 17 17 18 17 14 12 14 15 16 18 18 17 17 17 16 16 16 14 11 10 11 14 14 14 14 10 4 2 4 5 3 2 1 3 7 10 11 11 6 3 7 9 10 8 7 9 10 12 13 13 12 12 12 12 12 11 11 11 11 12
15 14 13 12 13 13 10 11 15 17 14 10 7 5 5 4 5 7 8 7 5 5 7 10 13 15 18 20 20 21 20 18 17 16 15 15 17 17 17 17 17 16 17 17 14 13 11 9 10 13 14 12 9 5 5 7 7 3 3 1 2 4 7 8 8 5 3 6 6 8 9 8 11 13 13 13 13 12 13 13 12 12 12 11 11 12 12
11 10 9 10 12 13 12 10 10 12 14 13 12 8 4 2 4 8 9 7 5 5 6 9 11 10 10 12 14 14 15 15 15 15 15 14 15 16 17 17 17 16 17 16 13 12 12 10 11 14 12 8 5 5 6 8 6 6 10 9 7 6 8 8 7 7 6 7 7 9 10 12 15 14 13 14 14 13 14 14 13 13 13 12 12 12 12
7 6 8 10 10 10 12 12 10 11 13 14 14 13 10 7 6 6 6 6 5 5 6 7 8 6 6 10 12 8 9 10 12 14 14 13 13 14 15 16 16 15 16 15 11 10 12 13 13 13 12 11 8 6 7 8 6 9 14 12 10 9 9 8 7 8 9 7 9 11 10 11 15 14 12 14 15 14 14 15 14 14 13 12 12 12 12
5 5 9 10 9 8 10 11 11 11 13 14 14 13 12 12 11 10 6 4 4 6 8 8 7 6 8 11 11 7 8 10 10 11 10 10 12 13 13 15 15 13 13 14 13 11 11 12 12 11 10 11 10 7 6 9 9 10 14 11 10 9 8 6 6 8 9 8 10 12 8 9 14 16 15 15 15 15 15 15 15 15 14 13 13 13 12
5 8 9 8 7 9 10 11 12 13 14 13 11 9 9 10 12 13 10 6 4 5 8 10 9 7 6 8 7 5 8 9 9 8 8 9 11 12 12 11 12 10 10 12 12 10 9 10 12 11 9 9 9 7 6 10 13 13 16 14 11 10 8 7 7 8 9 10 11 12 10 10 14 16 17 17 16 16 16 16 15 15 15 14 15 15 14
6 8 7 6 7 9 10 11 13 14 12 9 7 7 8 8 8 9 10 10 9 6 6 8 9 7 6 7 5 2 4 8 10 8 9 8 9 12 13 10 8 9 11 10 9 9 8 9 10 9 7 7 8 7 6 5 5 8 14 16 14 12 9 9 10 11 11 12 14 14 13 12 14 16 17 17 17 17 17 16 16 16 15 15 16 17 16
6 6 7 7 7 7 7 10 12 12 11 8 6 5 6 7 6 5 7 10 11 10 8 7 7 9 9 9 6 2 1 6 8 8 9 9 8 9 11 8 6 8 10 8 8 7 6 6 8 8 7 8 8 9 10 6 1 4 8 11 14 14 12 11 14 15 14 14 16 16 14 12 13 17 18 17 18 18 17 17 17 16 15 15 16 17 16
5 6 7 7 6 5 6 7 9 9 9 8 6 4 5 6 6 6 7 8 9 12 12 9 10 14 14 10 8 6 4 4 5 6 8 9 6 5 8 8 6 6 6 6 7 7 4 4 6 7 8 8 8 10 13 11 5 4 6 8 13 17 16 15 17 18 18 18 18 18 17 16 15 17 19 18 18 19 18 17 17 16 15 15 16 16 15
5 5 7 6 6 6 5 4 4 7 9 10 8 5 6 7 5 5 8 9 8 10 13 13 14 17 14 9 8 10 9 6 5 4 4 3 1 2 6 6 4 4 5 5 6 7 5 5 6 6 7 8 7 8 11 12 10 9 8 8 12 18 20 19 17 16 18 20 19 19 20 20 18 18 19 19 18 19 18 17 17 16 15 15 17 17 16
7 7 7 6 7 7 5 3 6 8 10 11 8 5 5 7 7 4 6 7 7 8 11 11 14 18 17 13 11 10 9 8 5 1 1 4 4 0 5 5 1 3 5 5 5 7 6 5 6 6 7 7 8 11 13 12 12 14 15 14 15 17 19 19 14 9 12 19 21 19 18 18 17 17 19 18 18 19 19 18 18 17 16 16 18 18 16
8 7 5 4 5 5 5 6 9 10 8 8 6 4 3 6 6 4 4 5 5 6 10 11 11 13 16 17 14 9 7 6 3 2 3 2 3 1 3 2 2 1 5 4 4 5 5 5 6 6 6 7 8 13 16 16 15 17 18 17 15 13 14 16 15 10 10 14 19 19 19 19 20 20 20 20 20 20 19 19 19 18 17 19 20 18 16
8 6 4 3 2 4 6 9 10 8 6 4 3 2 2 3 4 4 5 5 4 5 9 12 11 10 11 14 16 12 8 7 5 2 2 2 2 1 1 0 1 4 4 2 2 2 3 5 6 6 7 9 11 15 19 20 18 18 18 16 15 14 12 13 15 15 14 16 18 20 21 22 24 24 22 22 23 21 18 19 21 20 19 20 20 19 18
6 6 5 3 3 4 6 7 8 6 3 2 2 2 3 4 4 3 3 5 7 7 7 9 11 11 9 10 12 11 8 5 3 1 1 2 2 2 1 1 2 3 1 2 3 3 4 6 7 6 8 13 15 16 19 20 19 18 18 18 18 17 14 12 13 16 17 19 19 19 19 21 23 22 19 19 22 20 18 19 20 20 21 22 21 20 19
6 6 5 3 3 4 3 3 4 4 2 2 3 3 4 5 5 4 4 5 7 9 8 8 8 9 8 7 8 9 7 5 4 3 2 1 2 3 2 1 2 2 1 2 5 6 6 6 6 4 6 11 13 15 17 18 18 19 18 18 18 17 14 13 14 16 16 16 17 17 17 18 21 21 19 18 21 22 21 21 22 22 22 23 22 20 20
6 6 4 2 1 3 3 1 2 3 4 4 4 4 4 5 5 4 4 6 7 7 8 10 10 9 8 7 8 8 7 6 6 4 2 1 3 4 2 1 1 2 3 4 5 5 6 6 4 5 7 10 11 12 13 15 16 17 16 16 16 16 15 16 17 17 17 16 16 17 17 16 17 19 21 22 23 23 23 23 23 23 23 24 23 21 21
6 7 5 2 2 3 4 2 2 3 4 4 5 6 6 5 4 5 7 9 11 10 8 8 9 8 5 3 4 5 7 7 6 4 4 3 3 2 1 1 2 3 5 6 6 6 6 6 4 7 11 12 12 12 12 12 13 14 14 14 15 16 16 17 18 19 18 18 17 18 19 18 17 18 20 22 23 23 23 23 24 25 25 25 24 22 22
6 6 5 3 3 4 6 5 5 6 6 7 8 9 8 5 5 8 10 9 10 14 14 7 4 3 2 1 4 5 6 6 5 3 4 3 2 1 1 2 3 4 5 6 7 6 4 3 2 3 8 10 11 12 13 12 12 14 15 15 15 16 17 18 19 19 19 19 19 19 20 19 19 21 23 25 25 25 24 24 25 26 26 26 24 23 23
5 4 3 3 3 4 5 6 8 10 9 8 8 9 7 4 5 11 14 10 10 16 16 9 4 5 5 5 6 6 5 6 5 3 3 3 3 2 2 3 4 4 4 6 7 5 2 2 2 2 5 6 7 9 11 12 12 14 15 16 17 18 19 20 21 20 19 20 21 20 20 21 22 24 25 26 26 26 26 27 27 26 26 25 24 24 24
6 5 4 4 5 5 5 6 7 7 7 10 14 13 7 2 4 12 14 13 14 15 11 6 3 2 4 5 5 5 4 5 4 3 3 4 4 3 3 5 5 5 5 5 5 1 5 7 5 5 6 6 4 4 6 7 9 11 13 15 16 17 18 21 21 20 20 22 24 22 21 22 24 24 23 22 22 24 26 27 27 26 25 25 25 25 24
8 7 6 7 7 6 6 6 6 4 3 7 14 15 8 4 2 7 9 9 12 11 6 5 5 3 2 2 3 4 4 4 4 4 5 5 4 4 5 6 5 4 3 2 2 5 8 8 7 6 6 5 5 6 5 4 5 8 11 12 12 14 16 18 19 19 21 25 26 25 23 22 22 22 23 23 22 23 25 26 26 26 25 26 26 25 24
6 7 8 11 11 9 7 7 6 3 1 3 7 7 3 1 3 4 4 5 7 7 3 3 4 3 2 2 4 3 2 3 4 5 5 4 4 4 5 6 4 3 3 2 3 8 10 8 7 7 7 6 5 5 5 4 3 5 7 8 9 10 13 15 16 17 19 23 25 25 25 24 23 23 23 23 23 23 24 26 27 26 26 26 25 25 25
5 7 9 11 12 12 11 10 7 6 7 8 7 4 3 3 4 3 2 3 4 2 2 4 4 3 3 3 3 3 2 3 4 5 5 4 4 4 5 5 3 3 4 2 3 8 9 7 6 7 8 7 6 5 5 4 3 4 5 6 8 11 13 14 14 16 18 22 24 25 25 26 25 25 24 24 24 24 25 26 26 26 26 26 25 25 26
Wind_Direction
315 315 320 323 319 319 323 324 326 328 330 334 333 329 314 285 280 146 169 189 185 197 227 221 216 233 241 241 247 250 247 249 268 263 205 215 241 241 246 253 256 267 276 272 267 258 235 232 236 242 172 97 98 102 108 97 319 266 279 329 38 164 269 276 278 293 306 283 218 146 346 310 295 281 265 260 290 321 303 303 318 305 313 322 301 259 98
314 314 318 321 316 316 320 322 324 326 330 336 337 335 324 302 298 256 177 182 195 215 236 226 222 227 234 242 245 249 252 239 247 260 236 209 227 239 239 240 242 243 247 263 267 237 201 226 229 243 318 96 116 125 102 103 262 277 29 28 358 275 236 243 268 280 265 239 211 153 118 244 253 255 244 204 320 315 303 302 307 294 305 315 306 317 90
310 312 316 318 313 311 315 318 320 322 325 332 333 330 321 304 291 248 188 185 211 230 244 247 248 236 233 241 242 247 256 242 234 254 258 240 229 241 243 235 243 245 234 248 254 245 240 225 216 243 276 120 140 131 90 125 252 12 34 30 333 300 308 298 279 271 272 302 317 254 323 303 253 252 274 220 222 275 282 294 282 276 303 314 315 7 114
307 308 312 315 310 305 309 312 313 317 320 322 326 323 311 297 283 239 194 190 212 231 247 256 266 271 267 263 248 241 242 234 227 239 262 261 238 240 244 230 236 241 228 231 238 243 259 246 222 223 216 199 151 124 126 215 89 43 21 358 316 299 303 297 286 284 295 323 315 290 278 278 282 302 310 306 284 266 283 290 281 301 317 320 19 26 101
305 304 307 313 311 302 302 305 305 310 315 317 323 318 295 276 288 281 215 193 214 229 237 245 255 265 270 286 283 260 241 231 221 213 235 260 251 242 238 231 237 234 220 225 234 234 241 241 249 271 266 272 109 116 152 208 106 66 344 296 289 285 274 267 262 265 271 270 270 271 263 267 284 299 304 309 316 309 293 278 277 303 302 300 59 15 359
304 304 305 311 313 303 295 295 296 302 308 313 320 314 286 269 283 299 331 215 238 245 230 233 243 249 252 265 291 290 269 242 234 211 209 236 250 245 232 237 248 246 224 222 226 225 230 235 237 237 259 267 179 134 161 170 115 110 259 242 226 261 264 262 261 254 245 242 253 264 267 274 280 285 295 302 299 296 291 283 286 306 303 302 92 34 11
305 305 304 308 312 303 293 288 287 294 298 303 311 305 288 292 298 313 340 327 277 277 272 268 268 258 257 254 258 276 282 266 258 243 212 214 234 239 235 236 239 241 241 241 229 222 230 232 226 220 235 254 238 191 177 148 137 170 248 226 193 236 264 269 284 285 262 235 259 272 266 272 276 275 278 280 285 290 284 286 307 339 328 354 73 76 68
304 304 302 305 309 302 292 284 282 286 289 295 300 288 283 301 315 323 331 321 293 286 283 285 285 269 269 268 252 254 263 263 264 258 240 219 215 225 236 243 240 232 233 242 239 232 245 250 230 220 241 263 267 251 224 188 171 184 242 222 167 170 292 291 294 304 298 267 266 264 254 260 269 266 256 255 266 275 269 278 336 335 9 59 70 158 176
301 300 300 304 307 303 293 281 281 287 287 286 288 287 299 315 317 310 308 298 291 293 282 269 263 252 248 254 259 262 258 258 266 267 260 253 237 223 228 240 251 243 230 236 239 228 237 255 245 219 220 237 255 253 249 247 198 182 227 230 160 158 280 292 273 276 276 256 245 239 238 262 266 263 258 242 232 256 265 94 36 321 37 113 140 225 162
297 297 301 304 305 304 295 283 279 281 283 282 278 294 327 335 323 306 300 285 276 281 276 266 261 252 245 243 246 255 255 250 253 260 262 260 255 249 238 228 242 254 239 235 241 232 225 232 234 226 226 233 243 241 243 258 241 207 230 244 196 184 264 276 265 265 265 245 226 222 240 261 261 278 288 253 212 249 289 103 111 295 287 212 266 22 98
297 296 299 302 303 303 298 290 281 275 275 277 274 294 341 337 323 314 308 289 270 270 265 258 254 243 247 253 250 254 260 258 256 255 257 263 258 251 246 237 236 255 245 235 243 245 234 227 227 234 239 238 236 230 226 236 236 233 259 265 234 216 250 278 285 282 280 267 189 205 261 262 253 27 8 0 27 11 325 319 329 352 31 53 57 74 112
297 294 294 298 299 301 301 292 280 275 272 272 272 279 332 326 318 310 298 285 279 279 268 265 276 274 257 253 254 257 258 259 264 262 270 295 293 277 270 269 263 255 243 237 247 248 237 233 240 243 241 238 234 227 220 219 216 219 248 273 265 213 207 245 275 273 279 281 222 230 258 242 103 72 31 351 350 348 291 264 256 96 79 77 92 98 103
298 291 289 293 295 299 299 290 281 278 270 267 264 254 266 304 318 306 294 291 281 279 277 276 284 288 275 255 253 263 262 258 262 266 282 305 306 305 306 298 280 259 248 259 278 265 229 218 238 243 239 240 242 238 231 231 228 219 222 235 261 265 243 232 238 248 268 274 261 255 223 156 156 153 115 37 320 301 271 248 189 96 75 57 85 107 110
300 292 284 283 290 296 295 289 287 280 271 265 264 259 262 295 315 304 296 291 276 284 289 281 286 302 304 280 251 252 266 261 253 257 271 287 287 285 291 296 292 279 263 270 292 287 235 206 227 236 238 246 248 246 243 244 247 242 229 208 204 243 277 279 245 234 247 257 259 258 234 209 200 154 113 84 307 276 282 296 56 82 95 90 77 90 90
298 294 284 278 286 294 293 293 291 279 274 270 262 261 277 297 293 288 288 289 289 289 282 261 266 303 319 312 286 253 262 262 247 245 253 265 272 270 270 276 283 283 271 262 269 279 234 220 221 222 221 229 238 237 239 244 237 235 239 230 207 207 229 270 275 256 246 251 259 265 264 264 96 103 112 124 334 26 205 201 128 104 111 109 95 91 88
290 291 285 277 281 288 290 295 291 279 277 274 259 253 326 297 286 281 277 281 279 271 276 281 286 294 303 306 306 300 283 273 260 251 242 239 246 252 257 262 268 276 277 268 252 249 234 221 226 236 223 221 236 238 238 254 250 236 236 241 244 231 200 218 264 272 264 260 249 253 267 246 124 123 135 132 79 4 249 203 148 114 107 108 112 107 108
286 283 281 274 272 276 281 289 290 285 278 271 262 224 169 258 275 272 261 268 267 267 280 293 294 287 286 283 281 279 274 268 258 257 262 255 245 239 235 241 251 261 273 280 262 235 235 222 225 237 226 218 236 233 229 247 255 259 256 240 242 251 228 209 232 250 261 268 256 254 276 118 141 184 202 101 89 266 256 248 193 152 128 114 105 99 107
286 280 276 266 258 260 266 277 287 287 279 270 260 213 192 244 268 266 261 273 271 266 271 277 270 268 281 298 299 287 281 292 291 268 266 283 274 248 228 232 240 235 237 258 263 229 230 232 227 229 231 31 232 205 207 234 234 244 265 255 233 243 245 234 236 237 237 246 254 259 266 108 136 192 151 102 108 249 270 261 152 144 134 119 107 103 112
290 282 274 261 250 250 254 264 282 283 276 275 257 214 200 245 263 265 274 279 276 271 275 288 293 285 280 281 277 269 264 277 296 290 261 249 253 242 238 256 266 239 210 225 249 236 232 234 226 228 223 175 190 219 216 223 229 227 241 248 240 238 241 238 240 244 241 242 247 245 225 82 135 97 78 78 102 251 214 147 135 131 134 135 122 114 125
293 283 272 259 246 245 248 254 272 277 274 276 255 227 215 247 273 292 289 277 287 289 281 283 299 302 297 292 281 277 272 261 253 252 257 268 287 229 227 251 283 272 224 222 235 235 237 236 225 231 231 193 176 245 231 222 231 233 235 242 235 227 239 238 228 229 236 242 248 245 208 135 223 120 81 45 325 103 119 146 151 138 142 141 133 133 145
295 284 270 254 239 241 248 249 256 266 269 272 255 233 220 250 279 292 286 270 281 285 273 275 310 309 298 293 286 280 277 272 270 268 269 284 350 270 235 227 263 274 264 239 232 225 236 244 227 222 236 216 122 210 235 234 234 228 232 249 250 231 242 250 245 247 241 231 247 275 148 137 144 118 94 83 94 106 125 153 157 149 146 133 125 139 157
295 288 272 251 234 234 243 244 245 251 258 270 257 213 185 187 278 277 276 270 267 267 267 279 299 296 282 275 271 266 263 265 272 285 295 297 306 277 262 255 232 240 281 317 271 239 243 261 252 233 228 193 146 187 214 235 245 224 209 222 245 253 241 251 300 312 297 144 110 100 168 136 106 99 112 119 121 132 155 166 156 148 139 129 128 140 153
292 291 279 255 235 230 236 239 240 243 248 264 257 214 196 213 274 272 279 280 273 276 282 284 287 284 275 266 255 248 248 252 253 253 265 279 283 276 270 263 244 238 250 316 322 291 300 318 298 261 236 174 166 206 211 214 246 261 220 208 216 230 239 252 283 288 278 113 114 132 186 145 99 99 113 127 147 162 163 160 155 139 130 133 142 148 152
286 287 284 265 239 228 232 236 237 240 246 259 256 230 219 229 249 265 289 288 274 282 291 282 267 262 266 267 255 241 241 245 245 243 243 245 254 264 266 266 258 242 243 303 323 295 293 309 301 283 271 173 171 206 229 218 215 243 243 229 226 237 238 240 249 247 235 151 121 197 234 206 155 124 123 146 163 167 161 149 142 135 127 131 144 153 158
282 286 286 273 243 224 225 231 234 237 247 255 252 242 236 234 244 267 283 283 279 286 295 285 267 258 260 274 282 262 251 245 239 236 233 231 234 243 249 262 288 294 297 314 311 286 276 283 274 268 261 189 173 188 239 253 238 296 270 268 301 269 236 226 230 235 208 130 106 280 257 201 161 145 157 173 164 153 147 141 137 136 131 127 137 152 157
283 290 290 279 246 223 219 224 230 235 243 252 251 248 242 229 222 240 259 284 293 280 266 271 276 274 275 281 279 267 255 244 238 236 234 231 230 237 247 260 280 297 302 299 289 276 272 269 251 252 250 183 187 226 161 119 165 215 229 222 160 226 245 246 249 235 172 129 134 195 243 188 168 169 175 170 160 151 144 142 144 144 141 140 145 153 153
279 287 288 282 254 225 218 221 230 235 240 248 255 256 249 236 227 228 240 273 286 265 253 266 279 290 302 300 282 275 266 250 242 240 238 235 231 232 240 251 264 276 282 279 269 260 257 247 240 246 234 188 192 223 209 186 195 216 228 213 187 214 241 249 230 230 228 181 165 175 198 216 187 191 178 158 154 155 150 150 156 152 148 151 153 151 147
274 282 283 280 259 229 219 221 229 235 239 249 259 260 252 242 238 238 237 238 245 260 284 292 288 293 300 293 276 272 268 254 244 241 239 237 234 232 234 240 247 252 257 260 257 252 248 236 233 239 234 221 218 224 224 218 212 217 221 200 194 215 242 258 256 263 291 136 159 176 197 213 189 207 183 158 155 161 160 161 162 153 151 157 155 148 143
273 281 280 274 256 230 221 222 224 228 236 248 260 264 258 251 250 248 241 234 237 258 283 291 286 282 284 282 277 276 273 259 244 239 237 236 234 232 231 233 236 239 243 246 248 249 246 242 241 241 237 236 238 238 233 231 228 228 218 203 211 234 248 260 273 291 37 118 156 180 201 199 181 189 179 161 161 167 164 161 159 153 155 159 153 148 146
270 275 274 263 238 218 219 223 222 223 231 241 248 258 262 254 244 236 231 227 225 246 274 285 283 280 285 287 280 272 269 265 253 242 236 234 233 231 229 228 229 232 238 243 247 249 246 239 239 239 235 234 234 220 186 231 238 224 175 150 257 246 230 234 253 268 107 130 161 184 199 184 167 173 172 163 164 168 163 158 157 154 155 156 152 150 151
269 272 268 248 220 205 204 215 218 221 226 224 215 227 253 231 182 185 205 211 204 226 261 273 277 283 289 284 271 261 259 257 249 240 235 233 231 229 226 225 224 222 228 237 244 250 253 243 232 235 235 233 237 231 211 226 237 208 140 122 251 222 211 223 244 245 146 135 169 210 212 176 163 176 178 166 164 168 160 155 155 155 155 156 154 152 154
273 269 250 224 210 204 200 198 203 212 216 213 209 212 227 212 174 187 199 199 191 212 250 268 276 280 283 279 269 256 248 245 239 232 229 227 226 224 221 220 222 219 222 232 238 240 243 241 237 236 223 196 201 234 233 240 239 174 165 190 210 206 213 226 236 237 213 166 178 220 219 180 172 183 180 167 167 168 160 155 156 156 155 155 155 157 158
273 258 217 200 198 199 198 197 198 207 218 226 229 230 235 242 236 218 199 179 185 224 247 263 274 268 267 288 293 266 233 234 230 223 222 216 214 218 215 214 221 221 216 222 232 233 232 232 235 231 206 178 189 235 243 244 232 165 162 188 206 202 213 222 211 219 228 207 200 222 219 179 171 179 175 168 169 167 161 159 159 158 159 159 158 160 160
262 223 190 186 193 199 198 199 203 215 230 241 246 247 247 243 238 236 222 174 179 233 239 244 267 269 260 279 287 253 223 232 225 214 217 209 204 215 215 207 212 217 209 211 223 232 231 229 232 233 213 194 205 229 232 236 227 172 159 185 201 184 193 212 194 200 224 227 222 228 219 171 168 175 174 172 173 169 166 165 163 164 166 165 162 162 162
223 199 186 186 198 199 195 196 206 220 234 245 251 247 236 226 225 231 229 204 201 242 237 229 245 263 262 268 267 211 206 235 235 220 220 206 199 216 224 206 200 207 203 204 217 228 228 224 226 231 223 205 210 221 226 236 229 187 167 181 190 173 176 200 199 206 225 227 224 229 222 192 180 178 175 175 176 174 171 170 168 171 175 173 169 167 168
200 201 193 187 186 186 190 201 213 223 230 235 238 230 215 210 217 226 222 211 213 242 259 246 242 244 244 255 258 177 192 240 242 225 220 214 201 211 221 215 204 206 203 205 219 226 224 223 226 227 218 209 213 213 206 224 227 174 164 174 182 180 187 202 204 214 224 216 210 219 224 208 190 180 178 180 181 177 177 177 174 175 180 181 176 173 174
187 188 176 173 176 182 201 216 220 220 215 205 204 212 208 202 199 201 213 220 222 232 251 264 256 252 259 270 283 307 219 242 241 223 215 216 205 202 212 220 221 211 206 211 224 221 209 216 231 235 226 220 220 212 204 208 206 129 153 174 186 192 203 216 214 213 212 205 204 213 225 224 203 186 182 185 185 181 182 183 180 178 183 182 175 174 178
179 177 171 175 179 185 212 225 217 207 194 179 179 189 181 179 184 194 207 220 225 225 230 240 250 258 268 278 277 267 256 255 260 243 218 208 199 203 221 224 215 210 218 221 214 204 190 205 230 239 233 223 213 205 208 214 212 166 165 186 195 197 203 212 212 205 197 197 203 208 212 220 217 199 189 190 190 186 186 186 182 181 186 183 175 174 176
187 179 173 182 197 208 222 223 186 174 168 165 171 176 169 175 194 203 198 204 214 217 218 226 239 245 251 262 262 256 254 257 265 266 260 272 330 254 239 232 191 194 237 235 188 180 195 221 226 230 233 225 209 200 206 209 201 192 198 210 206 201 199 201 203 203 200 200 202 200 201 210 217 207 195 194 193 190 188 187 184 184 186 181 175 175 175
190 181 179 201 229 241 242 203 161 161 165 171 183 201 194 195 209 206 186 196 214 214 210 220 232 232 232 243 257 253 245 249 256 235 280 323 2 78 234 252 131 174 234 236 180 178 209 234 224 223 233 228 198 183 191 201 206 209 218 225 218 207 200 198 198 199 201 203 205 204 206 215 223 215 203 200 199 194 189 186 185 186 186 180 175 175 175
184 190 201 223 238 238 219 184 168 168 176 188 205 227 207 198 216 230 207 206 225 219 209 214 222 219 218 229 241 242 232 239 245 141 160 260 321 288 232 281 358 259 245 234 190 194 227 239 229 228 237 233 207 195 198 204 206 205 209 214 213 203 197 198 200 194 184 190 200 204 206 212 222 224 216 209 205 198 191 188 188 188 186 180 175 174 175
191 207 225 244 226 184 177 174 173 178 193 208 218 241 231 206 216 232 225 226 244 234 209 207 216 220 215 218 226 231 227 220 220 205 194 236 280 280 216 70 279 253 240 199 171 210 235 232 237 240 221 213 220 225 221 215 209 204 206 213 218 214 202 198 203 204 192 185 192 202 205 209 219 227 222 211 203 199 194 190 189 187 185 180 175 174 176
205 213 223 239 231 201 193 195 195 196 203 199 189 219 238 220 208 211 223 233 242 238 217 204 210 218 218 212 214 220 220 204 190 213 216 174 165 159 98 96 244 257 261 166 195 218 220 226 245 250 210 196 199 209 213 211 212 214 213 213 216 216 207 198 205 208 199 192 198 209 215 216 221 225 221 205 198 200 202 197 189 187 185 179 174 176 178
206 214 223 234 228 217 216 212 198 191 202 221 216 219 224 218 209 206 216 231 233 226 218 215 215 211 202 198 205 212 211 193 166 162 173 180 186 193 188 190 221 248 279 222 226 233 233 233 237 229 201 197 196 196 197 200 205 208 206 203 204 205 201 200 206 205 196 196 209 218 220 220 220 220 216 206 198 199 203 201 193 188 185 179 175 176 179
197 208 215 226 216 201 191 186 205 211 223 231 224 221 232 237 229 226 250 278 276 246 216 216 231 232 212 197 206 212 207 199 188 176 169 201 218 214 211 231 258 244 231 229 236 240 241 239 222 176 178 194 196 187 184 188 191 192 195 199 203 204 202 202 205 202 196 200 213 220 221 221 214 206 207 212 206 197 194 194 191 187 183 179 176 176 179
206 211 207 214 239 211 198 207 218 207 219 239 239 238 250 260 261 274 289 295 291 282 256 223 224 234 232 223 228 219 206 205 203 182 171 191 226 236 247 282 259 243 238 240 242 239 240 247 229 181 181 194 196 184 183 193 199 199 205 211 212 212 210 207 207 207 207 209 216 220 221 219 210 198 201 208 206 196 191 191 189 186 182 178 177 178 180
237 238 221 227 251 222 211 224 235 227 232 245 244 243 256 278 287 284 287 288 283 284 283 268 199 160 145 275 272 246 217 215 216 187 177 198 220 231 242 247 242 239 243 247 247 241 243 284 328 147 166 186 197 194 197 209 213 213 219 226 227 224 219 211 208 209 209 211 217 218 213 208 207 206 205 202 197 193 192 191 189 186 182 179 178 179 179
248 253 229 227 244 225 215 231 243 240 245 266 274 262 257 282 302 292 291 291 279 271 266 253 193 148 157 193 235 247 225 213 215 209 209 219 210 180 202 236 237 228 229 244 253 248 180 92 49 81 127 149 180 200 210 218 220 219 222 228 230 228 225 220 217 213 210 210 213 213 206 202 206 208 204 196 189 188 189 188 185 183 181 179 179 179 178
248 252 245 240 254 262 259 259 259 250 257 286 291 279 253 216 292 285 280 277 272 263 248 215 199 203 174 183 222 246 228 210 208 197 203 217 215 201 214 236 240 231 223 235 253 239 117 124 141 148 134 135 166 205 208 213 226 232 231 228 226 224 221 220 219 217 214 213 209 203 201 204 206 204 200 194 187 184 184 183 181 181 181 181 180 180 178
247 250 251 248 256 274 280 274 272 258 228 256 268 263 237 185 258 270 259 262 274 273 250 199 205 222 182 182 237 242 226 221 226 218 214 221 223 224 236 246 252 253 246 228 137 116 123 135 148 151 148 165 206 221 215 217 238 238 232 231 232 226 218 215 215 216 218 218 213 205 202 203 201 196 197 196 189 183 181 180 179 180 181 180 181 181 178
240 244 251 250 252 261 270 272 279 296 299 267 273 274 258 216 258 259 259 283 297 298 286 234 224 208 173 202 235 237 224 221 225 228 234 236 229 230 242 251 261 288 302 312 106 122 137 153 164 167 172 179 197 216 225 239 253 233 218 223 236 234 221 215 216 217 217 215 210 204 202 201 198 194 194 191 183 177 177 176 177 180 180 179 181 182 178
236 245 258 258 255 257 264 269 282 309 313 298 291 302 320 303 287 290 320 321 311 304 292 278 259 227 197 213 244 257 258 237 232 238 242 236 228 242 259 264 276 307 306 300 104 113 128 151 164 168 175 175 166 173 198 217 240 246 233 233 245 242 225 209 204 208 211 209 203 197 196 198 197 192 187 181 176 173 172 173 177 181 182 179 179 180 179